WD5U-1 Weather Reports


time (UTC)temp
F
wind
direction
speed
knots
gust
knots
rain 1hr
in
rain 24hr
in
rain mn
in
humidity
%
barometer
mb
20260506051225 55 9 7.8 9.6 0.00 0.00 0.00 82 1012.3
20260506051025 55 12 7.8 13.0 0.00 0.00 0.00 82 1012.4
20260506050901 55 7 7.0 11.3 0.00 0.00 0.00 82 1012.2
20260506050639 55 15 4.3 5.2 0.00 0.00 0.00 82 1012.3
20260506050418 55 19 6.1 9.6 0.00 0.00 0.00 82 1012.4
20260506050216 55 16 7.8 11.3 0.00 0.00 0.00 82 1012.3
20260506045041 55 357 5.2 10.4 0.00 0.00 0.00 83 1012.4
20260506044816 55 8 6.1 8.7 0.00 0.00 0.00 83 1012.3
20260506044625 55 8 7.0 11.3 0.00 0.00 0.00 83 1012.1
20260506044444 55 11 9.6 12.2 0.00 0.00 0.00 83 1012.1
20260506044222 55 12 7.0 10.4 0.00 0.00 0.00 83 1012.3
20260506044021 55 10 7.8 10.4 0.00 0.00 0.00 83 1012.1
20260506043820 55 20 9.6 11.3 0.00 0.00 0.00 83 1012.1
20260506043617 55 15 7.8 13.0 0.00 0.00 0.00 82 1012.4
20260506043436 56 355 6.1 13.0 0.00 0.00 0.00 82 1012.3
20260506043247 56 1 6.1 8.7 0.00 0.00 0.00 83 1012.4
20260506043023 56 9 7.8 13.0 0.00 0.00 0.00 83 1012.3
20260506042823 56 358 7.0 10.4 0.00 0.00 0.00 83 1012.5
20260506042620 56 6 10.4 13.9 0.00 0.00 0.00 83 1012.5
20260506042420 56 10 9.6 13.0 0.00 0.00 0.00 83 1012.3
20260506042238 56 11 8.7 13.0 0.00 0.00 0.00 83 1012.3
20260506042016 56 7 7.0 13.0 0.00 0.00 0.00 83 1012.3
20260506041825 56 12 11.3 14.8 0.00 0.00 0.00 83 1012.3
20260506041623 56 10 7.8 12.2 0.00 0.00 0.00 84 1012.2
20260506041442 56 14 10.4 15.6 0.00 0.00 0.00 84 1012.1
20260506041220 56 12 9.6 12.2 0.00 0.00 0.00 84 1012.1
20260506041018 56 8 10.4 15.6 0.00 0.00 0.00 84 1012.1
20260506040817 56 6 6.1 8.7 0.00 0.00 0.00 84 1012.0
20260506040616 56 10 7.0 11.3 0.00 0.00 0.00 84 1012.0
20260506040424 56 11 7.8 13.0 0.00 0.00 0.00 84 1012.1
20260506040223 56 17 10.4 14.8 0.00 0.00 0.00 85 1012.3
20260506040021 56 14 10.4 16.5 0.00 0.00 0.00 85 1012.2
20260506035900 56 3 7.0 9.6 0.00 0.00 0.00 86 1012.2
20260506035618 56 18 7.0 11.3 0.00 0.00 0.00 86 1012.2
20260506035417 56 358 7.0 10.4 0.00 0.00 0.00 86 1011.9
20260506035216 56 8 5.2 8.7 0.00 0.00 0.00 86 1012.0
20260506035044 56 2 7.0 10.4 0.00 0.00 0.00 86 1012.0
20260506034903 56 356 5.2 8.7 0.00 0.00 0.00 86 1012.0
20260506034621 57 6 4.3 6.1 0.00 0.00 0.00 86 1012.1
20260506034420 57 358 6.1 9.6 0.00 0.00 0.00 86 1011.9
20260506034219 57 356 6.1 10.4 0.00 0.00 0.00 86 1011.9
20260506034018 57 341 6.1 11.3 0.00 0.00 0.00 86 1011.8
20260506033845 57 15 6.1 9.6 0.00 0.00 0.00 86 1011.9
20260506033624 57 2 4.3 7.0 0.00 0.00 0.00 86 1012.0
20260506033423 57 12 5.2 8.7 0.00 0.00 0.00 86 1012.1
20260506033241 57 12 7.0 9.6 0.00 0.00 0.00 86 1011.8
20260506033020 57 7 4.3 9.6 0.00 0.00 0.00 86 1011.9
20260506032838 57 4 6.1 8.7 0.00 0.00 0.00 86 1011.8
20260506032617 57 6 7.0 12.2 0.00 0.00 0.00 86 1011.8
20260506032425 57 15 7.0 13.9 0.00 0.00 0.00 86 1012.0
20260506032224 57 16 11.3 14.8 0.00 0.00 0.00 86 1011.8
20260506032022 57 15 10.4 16.5 0.00 0.00 0.00 86 1011.6
20260506031821 57 9 9.6 13.0 0.00 0.00 0.00 86 1011.7
20260506031619 57 16 7.8 9.6 0.00 0.00 0.00 86 1011.6
20260506031418 57 11 6.1 9.6 0.00 0.00 0.00 86 1011.5
20260506031217 57 353 7.0 10.4 0.00 0.00 0.00 86 1011.4
20260506031025 58 354 7.0 10.4 0.00 0.00 0.00 86 1011.5
20260506030824 58 16 5.2 9.6 0.00 0.00 0.00 86 1011.4
20260506030622 58 19 7.0 7.8 0.00 0.00 0.00 86 1011.3
20260506030421 58 12 5.2 9.6 0.00 0.00 0.00 86 1011.2
20260506030220 58 25 8.7 13.0 0.00 0.00 0.00 86 1011.3
20260506030018 58 12 6.1 10.4 0.00 0.00 0.00 86 1011.5
20260506025816 58 7 4.3 6.1 0.00 0.00 0.00 86 1011.6
20260506025645 58 12 5.2 7.0 0.00 0.00 0.00 86 1011.4
20260506025423 58 24 7.0 10.4 0.00 0.00 0.00 85 1011.3
20260506025222 58 16 7.0 7.8 0.00 0.00 0.00 85 1011.4
20260506025020 58 22 7.8 10.4 0.00 0.00 0.00 85 1011.3
20260506024819 58 29 6.1 10.4 0.00 0.00 0.00 85 1011.3
20260506024617 58 20 5.2 8.7 0.00 0.00 0.00 85 1011.3
20260506024416 58 13 5.2 8.7 0.00 0.00 0.00 85 1011.3
20260506024225 58 3 6.1 9.6 0.00 0.00 0.00 85 1011.3
20260506024023 58 15 7.8 9.6 0.00 0.00 0.00 85 1011.3
20260506023842 58 24 7.0 12.2 0.00 0.00 0.00 85 1011.2
20260506023620 58 18 7.0 9.6 0.00 0.00 0.00 85 1011.3
20260506023419 59 14 7.0 9.6 0.00 0.00 0.00 85 1011.2
20260506023217 59 7 5.2 9.6 0.00 0.00 0.00 85 1011.3
20260506023016 59 5 6.1 9.6 0.00 0.00 0.00 85 1011.3
20260506022825 59 358 3.5 6.1 0.00 0.00 0.00 85 1011.0
20260506022623 59 1 4.3 5.2 0.00 0.00 0.00 85 1010.9
20260506022421 59 14 4.3 7.8 0.00 0.00 0.00 85 1011.0
20260506022220 59 14 7.0 9.6 0.00 0.00 0.00 85 1010.7
20260506022019 59 2 6.1 10.4 0.00 0.00 0.00 85 1010.7
20260506021837 59 9 7.0 10.4 0.00 0.00 0.00 85 1010.6
20260506021615 59 8 7.0 8.7 0.00 0.00 0.00 85 1010.7
20260506021427 59 28 13.0 14.8 0.00 0.00 0.00 84 1010.6
20260506021223 59 12 5.2 7.0 0.00 0.00 0.00 85 1010.4
20260506021041 59 13 6.1 7.8 0.00 0.00 0.00 85 1010.3
20260506020820 59 15 7.8 11.3 0.00 0.00 0.00 84 1010.0
20260506020619 59 20 7.8 10.4 0.00 0.00 0.00 84 1010.1
20260506020439 59 33 7.0 11.3 0.00 0.00 0.00 84 1009.9
20260506020216 59 16 7.8 13.9 0.00 0.00 0.00 84 1009.9
20260506020024 59 19 9.6 13.9 0.00 0.00 0.00 84 1009.9
20260506015823 59 12 9.6 13.9 0.00 0.00 0.00 84 1009.6
20260506015621 60 17 9.6 14.8 0.00 0.00 0.00 84 1009.6
20260506015421 60 18 9.6 16.5 0.00 0.00 0.00 83 1009.6
20260506015218 60 23 13.0 16.5 0.00 0.00 0.00 83 1009.5
20260506015037 60 14 8.7 12.2 0.00 0.00 0.00 84 1009.3
20260506014825 60 19 10.4 15.6 0.00 0.00 0.00 84 1009.2
20260506014624 60 19 7.0 8.7 0.00 0.00 0.00 83 1009.0
20260506014422 61 18 8.7 9.6 0.00 0.00 0.00 83 1009.0
20260506014221 61 15 9.6 13.0 0.00 0.00 0.00 83 1008.8
20260506014020 61 9 7.8 13.0 0.00 0.00 0.00 83 1008.9
20260506013818 61 11 9.6 14.8 0.00 0.00 0.00 82 1009.0
20260506013616 61 11 10.4 16.5 0.00 0.00 0.00 82 1009.0
20260506013426 61 18 10.4 14.8 0.00 0.00 0.00 82 1008.9
20260506013224 61 17 9.6 15.6 0.00 0.00 0.00 82 1008.9
20260506013023 61 16 9.6 13.9 0.00 0.00 0.00 82 1008.5
20260506012821 62 10 7.8 10.4 0.00 0.00 0.00 82 1008.6
20260506012639 62 11 11.3 16.5 0.00 0.00 0.00 81 1008.5
20260506012418 62 20 10.4 14.8 0.00 0.00 0.00 82 1008.5
20260506012216 62 3 7.0 12.2 0.00 0.00 0.00 82 1008.6
20260506012025 62 346 5.2 8.7 0.00 0.00 0.00 81 1008.6
20260506011824 62 4 7.8 14.8 0.00 0.00 0.00 81 1008.8
20260506011703 63 352 5.2 13.0 0.00 0.00 0.00 81 1008.5
20260506011422 63 356 9.6 14.8 0.00 0.00 0.00 81 1008.5
20260506011219 63 356 6.1 11.3 0.00 0.00 0.00 81 1008.4
20260506011017 63 358 6.1 12.2 0.00 0.00 0.00 81 1008.3
20260506010836 63 360 7.0 10.4 0.00 0.00 0.00 80 1008.2
20260506010625 63 360 7.0 14.8 0.00 0.00 0.00 80 1008.3
20260506010423 63 359 7.8 12.2 0.00 0.00 0.00 80 1008.2
20260506010224 63 338 8.7 13.0 0.00 0.00 0.00 80 1008.2
20260506010020 64 353 5.2 11.3 0.00 0.00 0.00 80 1008.2
20260506005819 64 352 7.8 13.9 0.00 0.00 0.00 79 1008.3
20260506005638 64 343 6.1 11.3 0.00 0.00 0.00 79 1008.1
20260506005417 64 360 7.8 12.2 0.00 0.00 0.00 79 1008.2
20260506005225 64 342 5.2 12.2 0.00 0.00 0.00 79 1008.0
20260506005024 64 10 5.2 13.0 0.00 0.00 0.00 79 1008.2
20260506004822 64 339 7.0 12.2 0.00 0.00 0.00 79 1008.0
20260506004620 64 6 6.1 10.4 0.00 0.00 0.00 79 1008.0
20260506004419 64 9 7.0 11.3 0.00 0.00 0.00 79 1007.7
20260506004218 64 5 7.0 12.2 0.00 0.00 0.00 79 1007.8
20260506004016 64 344 6.1 11.3 0.00 0.00 0.00 79 1008.2
20260506003905 64 15 6.1 11.3 0.00 0.00 0.00 79 1008.5
20260506003623 64 336 7.8 12.2 0.00 0.00 0.00 78 1008.4
20260506003442 65 337 7.0 11.3 0.00 0.00 0.00 79 1008.4
20260506003220 65 336 6.1 10.4 0.00 0.00 0.00 79 1008.3
20260506003019 65 345 5.2 9.6 0.00 0.00 0.00 79 1008.2
20260506002817 65 330 7.8 13.0 0.00 0.00 0.00 79 1008.3
20260506002617 65 354 5.2 10.4 0.00 0.00 0.00 79 1008.3
20260506002424 65 339 5.2 8.7 0.00 0.00 0.00 78 1008.2
20260506002224 65 345 4.3 8.7 0.00 0.00 0.00 78 1008.0
20260506002022 65 349 6.1 13.0 0.00 0.00 0.00 78 1007.9
20260506001841 65 349 5.2 9.6 0.00 0.00 0.00 78 1008.0
20260506001619 65 341 8.7 13.9 0.00 0.00 0.00 78 1008.2
20260506001417 65 356 4.3 9.6 0.00 0.00 0.00 78 1008.0
20260506001215 65 7 7.8 13.0 0.00 0.00 0.00 77 1008.2
20260506001024 65 345 6.1 11.3 0.00 0.00 0.00 78 1008.2
20260506000823 65 330 3.5 7.0 0.00 0.00 0.00 78 1008.4
20260506000621 65 343 3.5 7.8 0.00 0.00 0.00 78 1008.3
20260506000420 65 317 7.0 12.2 0.00 0.00 0.00 77 1008.3
20260506000219 65 334 7.0 9.6 0.00 0.00 0.00 77 1008.1
20260506000017 65 339 5.2 10.4 0.00 0.00 0.00 76 1007.8
20260505235846 66 340 7.8 11.3 0.00 0.00 0.00 76 1007.8
20260505235624 66 329 4.3 7.8 0.00 0.00 0.00 76 1008.2
20260505235422 66 345 6.1 11.3 0.00 0.00 0.00 76 1008.2
20260505235241 66 341 7.0 12.2 0.00 0.00 0.00 76 1008.3
20260505235040 66 330 12.2 17.4 0.00 0.00 0.00 75 1008.2
20260505234819 66 350 6.1 10.4 0.00 0.00 0.00 75 1008.0
20260505234637 66 337 7.0 14.8 0.00 0.00 0.00 75 1008.0
20260505234425 66 351 8.7 11.3 0.00 0.00 0.00 75 1008.0
20260505234224 66 348 10.4 17.4 0.00 0.00 0.00 75 1008.0
20260505234022 67 353 4.3 9.6 0.00 0.00 0.00 76 1007.8
20260505233823 67 343 10.4 13.9 0.00 0.00 0.00 75 1007.9
20260505233700 67 336 10.4 18.2 0.00 0.00 0.00 75 1008.0
20260505233438 67 343 7.8 11.3 0.00 0.00 0.00 75 1008.2
20260505233216 67 348 9.6 15.6 0.00 0.00 0.00 75 1008.2
20260505233026 67 335 10.4 17.4 0.00 0.00 0.00 75 1008.3
20260505232823 67 316 9.6 13.0 0.00 0.00 0.00 75 1008.2
20260505232622 67 314 9.6 14.8 0.00 0.00 0.00 75 1008.3
20260505232421 68 321 13.0 21.7 0.00 0.00 0.00 74 1008.3
20260505232219 68 330 7.8 16.5 0.00 0.00 0.00 75 1008.2
20260505232018 68 319 7.8 11.3 0.00 0.00 0.00 75 1007.9
20260505231816 68 337 6.1 11.3 0.00 0.00 0.00 75 1007.6
20260505231625 68 340 9.6 14.8 0.00 0.00 0.00 75 1007.5
20260505231423 69 348 9.6 14.8 0.00 0.00 0.00 74 1007.6
20260505231222 69 336 8.7 16.5 0.00 0.00 0.00 74 1007.6
20260505231020 69 338 11.3 20.0 0.00 0.00 0.00 74 1007.6
20260505230839 69 334 10.4 14.8 0.00 0.00 0.00 73 1007.5
20260505230416 69 345 6.1 14.8 0.00 0.00 0.00 73 1007.8
20260505230225 69 323 10.4 13.9 0.00 0.00 0.00 72 1007.8
20260505230023 70 317 13.9 19.1 0.00 0.00 0.00 72 1007.6
20260505225902 70 316 15.6 23.5 0.00 0.00 0.00 72 1007.8
20260505225620 70 321 13.0 16.5 0.00 0.00 0.00 72 1007.5
20260505225420 70 318 12.2 17.4 0.00 0.00 0.00 72 1007.6
20260505225217 70 323 13.9 18.2 0.00 0.00 0.00 72 1007.6
20260505225016 70 323 9.6 13.0 0.00 0.00 0.00 73 1007.7
20260505224924 70 320 9.6 13.0 0.00 0.00 0.00 73 1007.6
20260505224624 70 327 13.0 20.9 0.00 0.00 0.00 72 1007.5
20260505224422 70 323 11.3 15.6 0.00 0.00 0.00 72 1007.7
20260505224220 71 343 9.6 19.1 0.00 0.00 0.00 72 1007.7
20260505224019 71 346 10.4 14.8 0.00 0.00 0.00 72 1007.8
20260505223817 71 327 7.8 14.8 0.00 0.00 0.00 73 1007.9
20260505223615 71 322 7.8 11.3 0.00 0.00 0.00 73 1007.8
20260505223424 71 308 11.3 15.6 0.00 0.00 0.00 72 1007.7
20260505223223 71 312 14.8 21.7 0.00 0.00 0.00 72 1007.7
20260505223041 71 312 16.5 20.0 0.00 0.00 0.00 72 1007.8
20260505222821 71 322 11.3 15.6 0.00 0.00 0.00 72 1007.7
20260505222618 71 317 15.6 18.2 0.00 0.00 0.00 72 1007.6
20260505222417 71 304 12.2 14.8 0.00 0.00 0.00 72 1007.5
20260505222225 72 316 13.9 17.4 0.00 0.00 0.00 71 1007.4
20260505222024 72 316 13.0 15.6 0.00 0.00 0.00 72 1007.5
20260505221824 72 317 11.3 17.4 0.00 0.00 0.00 71 1007.6
20260505221621 72 319 10.4 14.8 0.00 0.00 0.00 71 1007.6
20260505221420 73 318 14.8 19.1 0.00 0.00 0.00 71 1007.6
20260505221218 73 312 9.6 13.9 0.00 0.00 0.00 72 1007.3
20260505221016 73 333 7.8 12.2 0.00 0.00 0.00 71 1007.3
20260505220825 73 319 11.3 17.4 0.00 0.00 0.00 71 1007.1
20260505220645 74 346 7.0 12.2 0.00 0.00 0.00 71 1007.3
20260505220423 74 335 5.2 11.3 0.00 0.00 0.00 71 1007.2
20260505220221 74 322 7.8 11.3 0.00 0.00 0.00 71 1007.1
20260505220019 74 323 10.4 14.8 0.00 0.00 0.00 70 1007.1
20260505215820 75 345 5.2 9.6 0.00 0.00 0.00 70 1007.0
20260505215616 75 358 7.8 13.9 0.00 0.00 0.00 68 1006.9
20260505215425 75 342 8.7 14.8 0.00 0.00 0.00 68 1006.9
20260505215244 76 336 7.0 13.9 0.00 0.00 0.00 67 1006.9
20260505215022 76 317 7.8 10.4 0.00 0.00 0.00 64 1006.8
20260505214820 78 356 7.0 11.3 0.00 0.00 0.00 64 1006.9
20260505214619 78 336 7.8 13.0 0.00 0.00 0.00 64 1006.8
20260505214418 78 337 9.6 14.8 0.00 0.00 0.00 63 1006.8
20260505214216 78 320 10.4 14.8 0.00 0.00 0.00 64 1006.7
20260505214025 79 314 10.4 13.9 0.00 0.00 0.00 64 1006.8
20260505213823 78 320 7.0 12.2 0.00 0.00 0.00 64 1006.7
20260505213622 78 320 8.7 11.3 0.00 0.00 0.00 64 1006.7
20260505213440 77 296 10.4 14.8 0.00 0.00 0.00 65 1006.7
20260505213219 78 303 11.3 16.5 0.00 0.00 0.00 65 1006.8
20260505213018 77 304 14.8 18.2 0.00 0.00 0.00 64 1006.8
20260505212816 77 301 10.4 13.0 0.00 0.00 0.00 66 1006.8
20260505212625 77 293 13.0 15.6 0.00 0.00 0.00 65 1007.1
20260505212423 78 295 11.3 14.8 0.00 0.00 0.00 65 1006.9
20260505212223 79 300 10.4 13.9 0.00 0.00 0.00 65 1006.7
20260505212020 80 333 7.8 13.0 0.00 0.00 0.00 64 1006.4
20260505211818 79 314 7.0 11.3 0.00 0.00 0.00 65 1006.8
20260505211617 78 323 8.7 15.6 0.00 0.00 0.00 66 1006.6
20260505211436 78 308 7.8 10.4 0.00 0.00 0.00 66 1006.6
20260505211224 78 311 8.7 13.0 0.00 0.00 0.00 66 1006.9
20260505211024 78 318 10.4 14.8 0.00 0.00 0.00 65 1006.8
20260505210843 79 321 11.3 14.8 0.00 0.00 0.00 64 1007.0
20260505210620 79 335 7.8 13.9 0.00 0.00 0.00 63 1007.0
20260505210419 79 345 6.1 9.6 0.00 0.00 0.00 64 1007.0
20260505210217 79 311 8.7 15.6 0.00 0.00 0.00 64 1007.0
20260505210015 79 331 8.7 13.0 0.00 0.00 0.00 63 1007.2
20260505205824 80 314 12.2 18.2 0.00 0.00 0.00 63 1007.1
20260505205623 80 312 8.7 12.2 0.00 0.00 0.00 64 1007.1
20260505205423 80 293 13.0 18.2 0.00 0.00 0.00 64 1007.1
20260505205220 80 306 10.4 14.8 0.00 0.00 0.00 63 1007.0
20260505205018 80 327 9.6 13.9 0.00 0.00 0.00 62 1006.8
20260505204818 81 293 12.2 16.5 0.00 0.00 0.00 62 1006.9
20260505204628 81 278 12.2 15.6 0.00 0.00 0.00 61 1007.0
20260505204424 80 308 8.7 13.9 0.00 0.00 0.00 63 1007.1
20260505204223 80 293 11.3 13.9 0.00 0.00 0.00 62 1007.0
20260505204021 81 289 15.6 20.0 0.00 0.00 0.00 61 1007.1
20260505203819 82 306 8.7 12.2 0.00 0.00 0.00 62 1007.0
20260505203638 81 327 7.0 9.6 0.00 0.00 0.00 62 1007.1
20260505203416 81 304 11.3 16.5 0.00 0.00 0.00 62 1007.1
20260505203225 81 290 10.4 13.0 0.00 0.00 0.00 61 1007.0
20260505203027 81 286 12.2 15.6 0.00 0.00 0.00 61 1006.9
20260505202822 81 281 10.4 12.2 0.00 0.00 0.00 61 1006.8
20260505202621 81 278 11.3 14.8 0.00 0.00 0.00 61 1006.8
20260505202419 80 308 8.7 11.3 0.00 0.00 0.00 62 1006.9
20260505202218 80 298 12.2 18.2 0.00 0.00 0.00 61 1007.1
20260505202016 79 293 11.3 17.4 0.00 0.00 0.00 62 1007.3
20260505201825 79 307 13.0 14.8 0.00 0.00 0.00 61 1007.0
20260505201644 79 279 9.6 13.9 0.00 0.00 0.00 61 1007.0
20260505201442 80 297 11.3 15.6 0.00 0.00 0.00 60 1007.0
20260505201220 81 293 12.2 14.8 0.00 0.00 0.00 59 1007.0
20260505201019 81 281 8.7 12.2 0.00 0.00 0.00 58 1007.0
20260505200818 82 305 11.3 13.9 0.00 0.00 0.00 55 1006.9
20260505200616 81 293 7.8 13.0 0.00 0.00 0.00 56 1007.0
20260505200425 80 293 11.3 15.6 0.00 0.00 0.00 55 1007.0
20260505200243 79 282 11.3 13.9 0.00 0.00 0.00 57 1007.0
20260505200022 79 291 13.9 16.5 0.00 0.00 0.00 55 1007.2
20260505195820 79 290 14.8 18.2 0.00 0.00 0.00 54 1007.2
20260505195619 79 297 12.2 15.6 0.00 0.00 0.00 54 1007.1
20260505195418 80 288 12.2 17.4 0.00 0.00 0.00 53 1007.2
20260505195216 81 291 13.9 18.2 0.00 0.00 0.00 51 1007.1
20260505195025 82 277 13.0 16.5 0.00 0.00 0.00 50 1006.9
20260505194823 81 283 13.9 20.9 0.00 0.00 0.00 49 1007.0
20260505194622 81 285 16.5 20.0 0.00 0.00 0.00 47 1006.8
20260505194420 81 290 16.5 19.1 0.00 0.00 0.00 47 1007.0
20260505194239 81 289 11.3 17.4 0.00 0.00 0.00 48 1006.9
20260505194037 81 292 14.8 20.9 0.00 0.00 0.00 46 1006.7
20260505193816 82 277 12.2 17.4 0.00 0.00 0.00 45 1006.7
20260505193624 82 276 11.3 15.6 0.00 0.00 0.00 47 1006.9
20260505193423 82 289 12.2 15.6 0.00 0.00 0.00 48 1006.8
20260505193241 81 276 17.4 21.7 0.00 0.00 0.00 46 1006.9
20260505193020 80 302 13.0 18.2 0.00 0.00 0.00 47 1006.7
20260505192858 80 283 15.6 20.0 0.00 0.00 0.00 47 1007.0
20260505192617 80 288 14.8 20.0 0.00 0.00 0.00 48 1007.1
20260505192415 81 300 14.8 18.2 0.00 0.00 0.00 48 1007.0
20260505192224 80 301 13.0 19.1 0.00 0.00 0.00 50 1007.0
20260505192043 80 303 16.5 21.7 0.00 0.00 0.00 49 1006.9
20260505191821 82 281 15.6 20.0 0.00 0.00 0.00 50 1006.8
20260505191620 83 262 10.4 13.0 0.00 0.00 0.00 59 1006.8
20260505191418 84 249 11.3 18.2 0.00 0.00 0.00 60 1006.6
20260505191217 84 264 9.6 13.9 0.00 0.00 0.00 58 1006.5
20260505191045 84 258 12.2 18.2 0.00 0.00 0.00 59 1006.5
20260505190824 84 238 10.4 14.8 0.00 0.00 0.00 61 1006.5
20260505190622 83 264 11.3 15.6 0.00 0.00 0.00 60 1006.5
20260505190441 84 244 13.9 15.6 0.00 0.00 0.00 60 1006.3
20260505190220 85 238 10.4 13.0 0.00 0.00 0.00 62 1006.6
20260505190018 84 250 11.3 13.9 0.00 0.00 0.00 63 1006.4
20260505185816 84 256 13.0 14.8 0.00 0.00 0.00 63 1006.4
20260505185645 84 199 9.6 12.2 0.00 0.00 0.00 65 1006.4
20260505185444 84 224 7.0 10.4 0.00 0.00 0.00 65 1006.3
20260505185222 84 225 7.0 10.4 0.00 0.00 0.00 65 1006.4
20260505185041 83 250 7.8 13.0 0.00 0.00 0.00 64 1006.4
20260505184821 84 214 8.7 10.4 0.00 0.00 0.00 65 1006.5
20260505184618 83 243 8.7 12.2 0.00 0.00 0.00 67 1006.4
20260505184416 82 224 8.7 13.9 0.00 0.00 0.00 68 1006.5
20260505184225 83 229 10.4 14.8 0.00 0.00 0.00 67 1006.4
20260505184024 83 234 8.7 12.2 0.00 0.00 0.00 67 1006.5
20260505183822 82 234 7.0 8.7 0.00 0.00 0.00 68 1006.4
20260505183621 82 213 8.7 13.0 0.00 0.00 0.00 68 1006.4
20260505183419 81 229 9.6 14.8 0.00 0.00 0.00 68 1006.4
20260505183218 81 223 8.7 12.2 0.00 0.00 0.00 68 1006.3
20260505183016 81 226 10.4 13.9 0.00 0.00 0.00 68 1006.3
20260505182825 81 231 9.6 13.0 0.00 0.00 0.00 68 1006.7
20260505182643 81 213 9.6 13.0 0.00 0.00 0.00 68 1006.4
20260505182422 81 219 6.1 7.8 0.00 0.00 0.00 69 1006.5
20260505182220 81 209 10.4 14.8 0.00 0.00 0.00 68 1006.6
20260505182019 81 205 7.0 9.6 0.00 0.00 0.00 69 1006.6
20260505181817 81 235 10.4 14.8 0.00 0.00 0.00 69 1006.8
20260505181616 81 209 8.7 11.3 0.00 0.00 0.00 68 1006.7
20260505181425 81 226 10.4 12.2 0.00 0.00 0.00 68 1006.6
20260505181223 81 223 9.6 12.2 0.00 0.00 0.00 68 1006.6
20260505181022 81 216 8.7 13.0 0.00 0.00 0.00 68 1006.6
20260505180841 81 216 10.4 14.8 0.00 0.00 0.00 67 1006.4
20260505180619 81 228 7.8 11.3 0.00 0.00 0.00 68 1006.4
20260505180417 81 245 8.7 10.4 0.00 0.00 0.00 68 1006.5
20260505180216 81 244 9.6 13.0 0.00 0.00 0.00 67 1006.6
20260505180046 81 227 12.2 15.6 0.00 0.00 0.00 67 1006.6
20260505175823 81 223 9.6 16.5 0.00 0.00 0.00 67 1006.6
20260505175622 81 232 13.0 15.6 0.00 0.00 0.00 66 1006.5
20260505175420 81 207 8.7 12.2 0.00 0.00 0.00 66 1006.7
20260505175221 81 244 10.4 13.9 0.00 0.00 0.00 67 1006.4
20260505175018 81 229 11.3 15.6 0.00 0.00 0.00 67 1006.2
20260505174816 81 221 11.3 16.5 0.00 0.00 0.00 66 1006.3
20260505174624 81 209 12.2 16.5 0.00 0.00 0.00 66 1006.5
20260505174423 82 235 10.4 13.9 0.00 0.00 0.00 66 1006.4
20260505174222 81 225 11.3 16.5 0.00 0.00 0.00 65 1006.4
20260505174020 82 238 11.3 15.6 0.00 0.00 0.00 66 1006.3
20260505173819 82 226 10.4 17.4 0.00 0.00 0.00 66 1006.3
20260505173617 81 228 13.9 18.2 0.00 0.00 0.00 67 1006.3
20260505173416 81 227 9.6 13.0 0.00 0.00 0.00 69 1006.3
20260505173245 81 230 12.2 17.4 0.00 0.00 0.00 68 1006.5
20260505173023 81 220 10.4 14.8 0.00 0.00 0.00 69 1006.4
20260505172841 80 205 11.3 15.6 0.00 0.00 0.00 68 1006.2
20260505172620 80 234 14.8 16.5 0.00 0.00 0.00 68 1006.3
20260505172418 80 230 15.6 20.9 0.00 0.00 0.00 67 1006.2
20260505172239 80 219 13.9 20.0 0.00 0.00 0.00 68 1006.3
20260505172025 81 228 12.2 16.5 0.00 0.00 0.00 69 1006.2
20260505171824 80 238 13.9 20.0 0.00 0.00 0.00 69 1006.1
20260505171642 81 210 13.0 16.5 0.00 0.00 0.00 68 1006.0
20260505171421 80 223 13.9 20.0 0.00 0.00 0.00 68 1006.0
20260505171220 81 212 15.6 21.7 0.00 0.00 0.00 68 1005.9
20260505171018 80 215 11.3 15.6 0.00 0.00 0.00 70 1006.0
20260505170817 80 219 13.0 18.2 0.00 0.00 0.00 70 1006.0
20260505170625 79 206 13.0 19.1 0.00 0.00 0.00 72 1006.0
20260505170424 80 212 17.4 21.7 0.00 0.00 0.00 72 1006.0
20260505170225 79 211 10.4 15.6 0.00 0.00 0.00 73 1005.9
20260505170021 79 224 13.9 18.2 0.00 0.00 0.00 73 1006.0
20260505165819 80 223 13.0 18.2 0.00 0.00 0.00 72 1006.0
20260505165638 79 207 11.3 15.6 0.00 0.00 0.00 74 1006.0
20260505165417 78 216 13.9 19.1 0.00 0.00 0.00 74 1006.0
20260505165245 78 208 13.9 17.4 0.00 0.00 0.00 74 1005.9
20260505165024 78 199 10.4 13.9 0.00 0.00 0.00 75 1006.0
20260505164822 78 214 11.3 14.8 0.00 0.00 0.00 76 1006.1
20260505164701 78 223 11.3 14.8 0.00 0.00 0.00 76 1006.2
20260505164420 78 201 8.7 9.6 0.00 0.00 0.00 76 1006.1
20260505164218 77 202 9.6 13.9 0.00 0.00 0.00 77 1006.2
20260505164037 77 205 12.2 14.8 0.00 0.00 0.00 77 1006.3
20260505163905 76 203 13.0 17.4 0.00 0.00 0.00 77 1006.2
20260505163624 76 218 11.3 14.8 0.00 0.00 0.00 78 1006.2
20260505163422 76 204 11.3 13.9 0.00 0.00 0.00 77 1005.7
20260505163221 76 203 10.4 13.0 0.00 0.00 0.00 77 1005.9
20260505163039 76 204 8.7 11.3 0.00 0.00 0.00 78 1005.7
20260505162818 76 204 8.7 12.2 0.00 0.00 0.00 77 1006.0
20260505162616 76 202 13.0 17.4 0.00 0.00 0.00 77 1005.8
20260505162425 76 223 8.7 11.3 0.00 0.00 0.00 78 1005.7
20260505162224 76 204 10.4 13.0 0.00 0.00 0.00 77 1006.0
20260505162042 76 205 10.4 14.8 0.00 0.00 0.00 78 1005.8
20260505161842 75 201 8.7 14.8 0.00 0.00 0.00 78 1005.7
20260505161619 75 201 9.6 12.2 0.00 0.00 0.00 78 1005.9
20260505161418 75 210 7.8 9.6 0.00 0.00 0.00 79 1006.0
20260505161216 75 206 7.8 11.3 0.00 0.00 0.00 78 1006.0
20260505161025 75 226 10.4 15.6 0.00 0.00 0.00 78 1006.0
20260505160823 75 207 8.7 13.0 0.00 0.00 0.00 78 1005.6
20260505160622 75 204 10.4 15.6 0.00 0.00 0.00 78 1005.9
20260505160423 75 203 7.8 11.3 0.00 0.00 0.00 79 1006.0
20260505160219 75 196 9.6 11.3 0.00 0.00 0.00 79 1006.0
20260505153217 75 216 8.7 11.3 0.00 0.00 0.00 80 1005.9
20260505153016 75 204 8.7 10.4 0.00 0.00 0.00 80 1005.9
20260505152844 75 200 8.7 11.3 0.00 0.00 0.00 80 1005.9
20260505152643 75 208 7.8 10.4 0.00 0.00 0.00 80 1005.8
20260505152421 75 202 7.8 9.6 0.00 0.00 0.00 80 1005.9
20260505152220 75 204 7.8 11.3 0.00 0.00 0.00 79 1005.7
20260505152019 75 220 11.3 16.5 0.00 0.00 0.00 79 1005.5
20260505151818 75 200 9.6 12.2 0.00 0.00 0.00 79 1005.6
20260505151617 75 203 9.6 13.0 0.00 0.00 0.00 80 1005.5
20260505151424 75 206 10.4 14.8 0.00 0.00 0.00 80 1005.6
20260505151223 74 199 9.6 12.2 0.00 0.00 0.00 80 1005.7
20260505151021 74 209 9.6 13.9 0.00 0.00 0.00 79 1005.6
20260505150821 74 207 10.4 15.6 0.00 0.00 0.00 79 1005.6
20260505150618 74 205 10.4 13.9 0.00 0.00 0.00 80 1005.3
20260505150417 74 204 10.4 13.9 0.00 0.00 0.00 80 1005.3
20260505150217 74 203 9.6 13.0 0.00 0.00 0.00 80 1005.4
20260505140645 72 207 11.3 14.8 0.00 0.00 0.00 85 1005.5
20260505140444 71 202 8.7 11.3 0.00 0.00 0.00 86 1005.2
20260505140222 71 202 11.3 14.8 0.00 0.00 0.00 86 1005.4
20260505130218 69 185 7.0 9.6 0.00 0.00 0.00 89 1005.1
20260505125020 68 193 9.6 13.9 0.00 0.00 0.00 90 1004.7
20260505124838 68 193 10.4 14.8 0.00 0.00 0.00 90 1004.8
20260505124619 68 201 11.3 13.0 0.00 0.00 0.00 91 1005.0
20260505124425 68 192 8.7 12.2 0.00 0.00 0.00 91 1004.8
20260505124224 68 196 8.7 10.4 0.00 0.00 0.00 91 1004.8
20260505124023 68 195 9.6 12.2 0.00 0.00 0.00 91 1004.8
20260505123821 67 195 8.7 12.2 0.00 0.00 0.00 91 1004.6
20260505123640 67 202 8.7 11.3 0.00 0.00 0.00 91 1004.8
20260505123418 68 193 9.6 12.2 0.00 0.00 0.00 91 1004.8
20260505123216 67 197 9.6 12.2 0.00 0.00 0.00 91 1004.9
20260505123025 67 192 7.8 10.4 0.00 0.00 0.00 91 1004.8
20260505122844 67 200 9.6 11.3 0.00 0.00 0.00 91 1004.7
20260505122622 67 185 7.8 9.6 0.00 0.00 0.00 91 1004.9
20260505122441 67 193 7.8 9.6 0.00 0.00 0.00 91 1004.7
20260505122219 67 199 7.8 13.0 0.00 0.00 0.00 91 1004.8
20260505122018 67 195 7.8 10.4 0.00 0.00 0.00 91 1004.8
20260505121816 67 180 7.8 9.6 0.00 0.00 0.00 91 1004.6
20260505121645 67 185 7.8 9.6 0.00 0.00 0.00 92 1004.7
20260505121426 67 194 8.7 10.4 0.00 0.00 0.00 91 1004.7
20260505121222 67 180 8.7 11.3 0.00 0.00 0.00 91 1004.8
20260505121021 67 178 7.8 11.3 0.00 0.00 0.00 91 1004.5
20260505120819 67 187 8.7 13.0 0.00 0.00 0.00 91 1004.5
20260505120618 67 183 10.4 12.2 0.00 0.00 0.00 91 1004.4
20260505120418 67 188 8.7 11.3 0.00 0.00 0.00 92 1004.4
20260505120225 67 173 10.4 14.8 0.00 0.00 0.00 91 1004.2
20260505120026 67 183 9.6 12.2 0.00 0.00 0.00 92 1004.5
20260505115824 67 181 8.7 10.4 0.00 0.00 0.00 92 1004.6
20260505115621 67 180 9.6 11.3 0.00 0.00 0.00 92 1004.5
20260505115421 67 179 9.6 11.3 0.00 0.00 0.00 92 1004.5
20260505115218 67 183 8.7 11.3 0.00 0.00 0.00 92 1004.3
20260505115016 67 178 7.8 10.4 0.00 0.00 0.00 92 1004.2
20260505114845 67 181 7.0 9.6 0.00 0.00 0.00 92 1004.3
20260505114623 67 182 7.8 11.3 0.00 0.00 0.00 92 1004.3
20260505114424 67 178 7.8 8.7 0.00 0.00 0.00 92 1004.1
20260505114222 67 182 8.7 9.6 0.00 0.00 0.00 92 1004.4
20260505114041 67 179 10.4 13.0 0.00 0.00 0.00 92 1004.3
20260505113818 67 182 7.8 9.6 0.00 0.00 0.00 92 1004.3
20260505113636 67 178 10.4 13.0 0.00 0.00 0.00 92 1004.2
20260505113445 67 178 7.8 9.6 0.00 0.00 0.00 93 1003.9
20260505113223 67 185 7.8 10.4 0.00 0.00 0.00 92 1004.0
20260505113022 67 188 7.8 9.6 0.00 0.00 0.00 92 1004.2
20260505112820 67 183 8.7 13.0 0.00 0.00 0.00 92 1004.2
20260505112619 67 184 8.7 10.4 0.00 0.00 0.00 92 1004.3
20260505112437 67 185 8.7 11.3 0.00 0.00 0.00 92 1004.3
20260505112216 67 178 7.8 10.4 0.00 0.00 0.00 92 1004.1
20260505112025 66 180 7.8 10.4 0.00 0.00 0.00 93 1004.0
20260505111825 66 180 7.8 11.3 0.00 0.00 0.00 93 1004.2
20260505111642 66 177 7.0 10.4 0.00 0.00 0.00 92 1004.5
20260505111420 66 180 8.7 10.4 0.00 0.00 0.00 93 1004.5
20260505111219 66 180 7.0 10.4 0.00 0.00 0.00 93 1004.4
20260505111017 66 180 7.8 9.6 0.00 0.00 0.00 93 1004.4
20260505110816 66 182 7.0 8.7 0.00 0.00 0.00 93 1004.3
20260505110624 66 180 7.0 9.6 0.00 0.00 0.00 93 1004.3
20260505110423 66 177 7.8 10.4 0.00 0.00 0.00 93 1004.2
20260505110224 66 174 7.0 8.7 0.00 0.00 0.00 93 1004.2
20260505102023 67 174 5.2 6.1 0.00 0.00 0.00 91 1004.3
20260505101820 67 176 7.8 8.7 0.00 0.00 0.00 91 1004.3
20260505101618 67 172 7.0 9.6 0.00 0.00 0.00 91 1004.5
20260505101420 67 178 7.0 8.7 0.00 0.00 0.00 91 1004.6
20260505101308 67 177 8.7 10.4 0.00 0.00 0.00 91 1004.6
20260505101024 67 176 7.8 9.6 0.00 0.00 0.00 91 1004.5
20260505100822 67 177 8.7 12.2 0.00 0.00 0.00 90 1004.5
20260505100621 67 173 8.7 10.4 0.00 0.00 0.00 90 1004.5
20260505100422 67 177 8.7 10.4 0.00 0.00 0.00 90 1004.6
20260505100219 67 177 7.8 11.3 0.00 0.00 0.00 90 1004.6
20260505100017 67 175 8.7 12.2 0.00 0.00 0.00 90 1004.6
20260505095825 68 177 9.6 11.3 0.00 0.00 0.00 90 1004.4
20260505095644 67 177 8.7 11.3 0.00 0.00 0.00 90 1004.6
20260505095422 67 176 9.6 11.3 0.00 0.00 0.00 90 1004.5
20260505095241 68 182 9.6 13.0 0.00 0.00 0.00 89 1004.5
20260505095039 68 175 10.4 13.0 0.00 0.00 0.00 89 1004.4
20260505094818 68 175 9.6 12.2 0.00 0.00 0.00 89 1004.4
20260505094616 68 175 10.4 13.0 0.00 0.00 0.00 89 1004.5
20260505094425 68 169 11.3 13.0 0.00 0.00 0.00 89 1004.6
20260505094225 68 173 8.7 12.2 0.00 0.00 0.00 89 1004.3
20260505094042 68 168 7.8 10.4 0.00 0.00 0.00 88 1004.7
20260505093823 68 164 8.7 11.3 0.00 0.00 0.00 88 1004.6
20260505093621 68 171 7.8 10.4 0.00 0.00 0.00 88 1004.6
20260505093440 68 178 8.7 10.4 0.00 0.00 0.00 88 1004.6
20260505093216 68 174 9.6 11.3 0.00 0.00 0.00 88 1004.7
20260505093045 68 168 7.8 10.4 0.00 0.00 0.00 88 1004.7
20260505092823 68 171 8.7 10.4 0.00 0.00 0.00 88 1004.5
20260505092622 68 171 8.7 11.3 0.00 0.00 0.00 88 1004.6
20260505092420 68 175 7.8 9.6 0.00 0.00 0.00 88 1004.4
20260505092239 68 174 7.0 9.6 0.00 0.00 0.00 88 1004.6
20260505092018 68 176 8.7 11.3 0.00 0.00 0.00 88 1004.5
20260505091816 68 172 7.8 11.3 0.00 0.00 0.00 88 1004.5
20260505091625 68 173 8.7 11.3 0.00 0.00 0.00 87 1004.5
20260505091424 68 172 8.7 10.4 0.00 0.00 0.00 87 1004.5
20260505091223 68 173 7.0 8.7 0.00 0.00 0.00 88 1004.6
20260505091020 68 171 7.0 8.7 0.00 0.00 0.00 87 1004.5
20260505090841 68 170 8.7 11.3 0.00 0.00 0.00 87 1004.6
20260505090617 69 172 7.8 9.6 0.00 0.00 0.00 87 1004.6
20260505090416 69 170 7.8 11.3 0.00 0.00 0.00 86 1004.6
20260505090225 69 170 7.8 9.6 0.00 0.00 0.00 86 1004.6
20260505090023 69 172 7.8 11.3 0.00 0.00 0.00 86 1004.9
20260505085824 69 172 10.4 12.2 0.00 0.00 0.00 86 1004.7
20260505085641 69 166 9.6 11.3 0.00 0.00 0.00 86 1004.6
20260505085421 69 173 7.8 10.4 0.00 0.00 0.00 86 1004.8
20260505085238 69 166 9.6 13.9 0.00 0.00 0.00 86 1004.6
20260505085016 69 174 10.4 12.2 0.00 0.00 0.00 86 1004.8
20260505084826 69 177 7.8 9.6 0.00 0.00 0.00 86 1004.8
20260505084623 69 170 9.6 13.0 0.00 0.00 0.00 85 1004.7
20260505084422 69 167 7.8 9.6 0.00 0.00 0.00 86 1004.8
20260505084220 69 174 8.7 10.4 0.00 0.00 0.00 85 1004.8
20260505084019 69 173 9.6 12.2 0.00 0.00 0.00 85 1004.9
20260505083819 69 176 7.8 10.4 0.00 0.00 0.00 85 1004.9
20260505083618 69 186 7.0 10.4 0.00 0.00 0.00 86 1004.9
20260505083445 69 170 8.7 10.4 0.00 0.00 0.00 85 1004.6
20260505083224 69 167 7.8 9.6 0.00 0.00 0.00 86 1004.6
20260505083022 69 171 8.7 11.3 0.00 0.00 0.00 85 1004.7
20260505082822 69 177 7.8 9.6 0.00 0.00 0.00 85 1004.7
20260505082619 69 168 10.4 13.0 0.00 0.00 0.00 85 1004.6
20260505082417 69 170 7.0 10.4 0.00 0.00 0.00 85 1004.7
20260505082216 69 163 7.8 10.4 0.00 0.00 0.00 85 1004.6
20260505082106 70 160 7.8 11.3 0.00 0.00 0.00 84 1004.6
20260505081823 70 155 7.8 11.3 0.00 0.00 0.00 84 1004.6
20260505081621 70 159 7.8 11.3 0.00 0.00 0.00 84 1004.7
20260505081440 70 157 7.8 10.4 0.00 0.00 0.00 84 1004.7
20260505081221 70 159 7.8 10.4 0.00 0.00 0.00 84 1004.8
20260505081017 70 154 7.0 11.3 0.00 0.00 0.00 83 1004.8
20260505080826 70 161 7.8 9.6 0.00 0.00 0.00 84 1004.8
20260505080644 70 166 9.6 11.3 0.00 0.00 0.00 83 1004.7
20260505080423 70 166 10.4 11.3 0.00 0.00 0.00 83 1004.9
20260505080221 70 162 9.6 12.2 0.00 0.00 0.00 83 1004.8
20260505080020 70 160 7.0 11.3 0.00 0.00 0.00 83 1004.7
20260505075818 70 167 11.3 13.9 0.00 0.00 0.00 83 1004.8
20260505075617 70 165 9.6 13.0 0.00 0.00 0.00 83 1004.8
20260505075425 70 159 8.7 10.4 0.00 0.00 0.00 83 1004.7
20260505075224 71 162 7.0 9.6 0.00 0.00 0.00 82 1004.7
20260505075103 71 160 9.6 13.0 0.00 0.00 0.00 82 1004.8
20260505074841 71 164 8.7 11.3 0.00 0.00 0.00 82 1004.9
20260505074639 71 163 8.7 10.4 0.00 0.00 0.00 83 1005.0
20260505074438 71 162 7.0 10.4 0.00 0.00 0.00 82 1004.9
20260505074216 71 168 7.8 9.6 0.00 0.00 0.00 82 1004.9
20260505074025 71 169 7.8 12.2 0.00 0.00 0.00 82 1005.2
20260505073844 71 163 8.7 11.3 0.00 0.00 0.00 82 1005.2
20260505073622 71 170 7.8 10.4 0.00 0.00 0.00 82 1005.0
20260505073441 71 169 7.8 10.4 0.00 0.00 0.00 82 1005.1
20260505073221 71 174 7.8 9.6 0.00 0.00 0.00 82 1005.2
20260505073018 71 172 9.6 12.2 0.00 0.00 0.00 81 1005.4
20260505072816 71 178 8.7 11.3 0.00 0.00 0.00 82 1005.3
20260505072625 71 169 8.7 11.3 0.00 0.00 0.00 82 1005.4
20260505072506 71 172 7.0 9.6 0.00 0.00 0.00 82 1005.5
20260505072223 71 172 9.6 12.2 0.00 0.00 0.00 81 1005.6
20260505071819 71 172 9.6 13.0 0.00 0.00 0.00 81 1005.6
20260505071618 72 171 9.6 13.0 0.00 0.00 0.00 81 1005.5
20260505071419 71 176 9.6 13.0 0.00 0.00 0.00 81 1005.6
20260505071245 71 181 8.7 11.3 0.00 0.00 0.00 81 1005.8
20260505071043 71 178 7.8 10.4 0.00 0.00 0.00 81 1005.7
20260505070822 72 178 9.6 12.2 0.00 0.00 0.00 80 1005.8
20260505070620 71 180 9.6 13.0 0.00 0.00 0.00 81 1005.7
20260505070419 71 181 8.7 12.2 0.00 0.00 0.00 81 1005.8
20260505070219 72 182 10.4 13.9 0.00 0.00 0.00 80 1005.8
20260505070016 71 175 9.6 11.3 0.00 0.00 0.00 81 1005.9
20260505065845 72 177 9.6 13.9 0.00 0.00 0.00 80 1005.9
20260505065623 72 187 10.4 14.8 0.00 0.00 0.00 80 1005.9
20260505065425 71 175 11.3 15.6 0.00 0.00 0.00 80 1005.9
20260505065220 72 178 7.8 12.2 0.00 0.00 0.00 80 1005.9
20260505065019 71 180 10.4 13.0 0.00 0.00 0.00 81 1006.1
20260505064818 72 182 8.7 11.3 0.00 0.00 0.00 80 1005.9
20260505064616 72 177 10.4 12.2 0.00 0.00 0.00 80 1006.0
20260505064425 72 173 10.4 13.0 0.00 0.00 0.00 80 1006.0
20260505064224 72 181 9.6 13.9 0.00 0.00 0.00 80 1006.0
20260505064022 72 184 10.4 13.0 0.00 0.00 0.00 80 1006.1
20260505063820 72 187 8.7 13.0 0.00 0.00 0.00 80 1006.2
20260505063621 72 189 8.7 11.3 0.00 0.00 0.00 80 1006.1
20260505063437 72 187 13.0 17.4 0.00 0.00 0.00 79 1006.2
20260505063217 72 185 10.4 13.9 0.00 0.00 0.00 79 1006.0
20260505063024 72 180 7.8 10.4 0.00 0.00 0.00 80 1006.2
20260505062823 72 187 12.2 14.8 0.00 0.00 0.00 79 1006.0
20260505062622 72 179 10.4 12.2 0.00 0.00 0.00 79 1006.3
20260505062423 73 180 11.3 16.5 0.00 0.00 0.00 79 1006.2
20260505062221 72 188 11.3 16.5 0.00 0.00 0.00 79 1006.0
20260505062020 72 179 10.4 13.0 0.00 0.00 0.00 79 1006.2
20260505061816 72 177 8.7 11.3 0.00 0.00 0.00 79 1006.2
20260505061627 73 180 13.9 18.2 0.00 0.00 0.00 78 1006.0
20260505061503 73 176 11.3 16.5 0.00 0.00 0.00 78 1006.0
20260505061221 73 181 11.3 14.8 0.00 0.00 0.00 79 1006.0
20260505061022 73 182 11.3 16.5 0.00 0.00 0.00 78 1006.1
20260505060819 73 187 11.3 15.6 0.00 0.00 0.00 78 1006.4
20260505060617 73 177 13.0 16.5 0.00 0.00 0.00 78 1006.2
20260505060435 73 181 11.3 14.8 0.00 0.00 0.00 78 1006.2
20260505060245 73 176 12.2 16.5 0.00 0.00 0.00 78 1006.0
20260505060043 73 180 13.0 15.6 0.00 0.00 0.00 78 1006.2